Weather History for Pian Rosa, Italy

Change the Weather History Date:

Sunday, January 20, 2013

  Actual Average Record
Temperature  
Mean Temperature 13 °F -  
Max Temperature 15 °F 17 °F 32 °F (1997)
Min Temperature 11 °F 6 °F -13 °F (1998)
Degree Days  
Heating Degree Days 52    
Moisture  
Dew Point 12 °F    
Average Humidity 92    
Maximum Humidity 100    
Minimum Humidity 83    
Precipitation  
Precipitation 0.01 in - - ()
Sea Level Pressure  
Sea Level Pressure 29.22 in    
Wind  
Wind Speed 27 mph ()    
Max Wind Speed 43 mph    
Max Gust Speed -    
Visibility 0.1 miles    
Events Fog , Snow    
Averages and records for this station are not official NWS values.
T = Trace of Precipitation, MM = Missing Value Source: Averaged Metar Reports

Daily Weather History Graph

Daily Weather History Graph

Search for Another Location

Airport:

Trip Planner

Search our weather history database for the weather conditions in past years. The results will help you decide how hot, cold, wet, or windy it might be!

Date:

Astronomy

Jan. 20, 2013 Rise Set
Actual Time 8:03 AM CET 5:17 PM CET
Civil Twilight 7:30 AM CET 5:50 PM CET
Nautical Twilight 6:53 AM CET 6:27 PM CET
Astronomical Twilight 6:18 AM CET 7:02 PM CET
Moon 12:10 PM CET (1/20) 2:17 AM CET (1/20)
Length of Visible Light 10h 20m
Length of Day
9h 14m
Waxing Gibbous, 64% of the Moon is Illuminated
Jan 20
Waxing Gibbous
Jan 27
Full
Feb 3
Last Quarter
Feb 10
New
Feb 17
First Quarter

Hourly Weather History & Observations

Time (CET) Temp. Windchill Dew Point Humidity Pressure Visibility Wind Dir Wind Speed Gust Speed Precip Events Conditions
12:55 AM 14.0 °F -8.0 °F 12.2 °F 93% 29.24 in 0.1 mi South 34.5 mph - N/A Fog Light Freezing Fog
1:00 AM 14 °F - 13 °F 92%  in 0 mi South 34.5 mph - - Fog Heavy Fog
1:55 AM 14.0 °F -9.3 °F 12.2 °F 93% 29.24 in 0.1 mi South 40.3 mph - N/A Fog Light Freezing Fog
2:55 AM 15.8 °F -6.1 °F 14.0 °F 93% 29.24 in 0.1 mi South 36.8 mph - N/A Fog Light Freezing Fog
3:55 AM 14.0 °F -9.8 °F 14.0 °F 100% 29.24 in 0.2 mi South 42.6 mph - N/A Fog Light Freezing Fog
4:00 AM 14 °F - 13 °F 94%  in 0 mi South 42.6 mph - - Fog Heavy Fog
4:55 AM 14.0 °F -7.4 °F 12.2 °F 93% 29.24 in 0.5 mi South 32.2 mph - N/A Fog Light Freezing Fog
5:55 AM 14.0 °F -7.1 °F 12.2 °F 93% 29.24 in 0.1 mi South 31.1 mph - N/A Fog Light Freezing Fog
6:55 AM 14.0 °F -6.5 °F 12.2 °F 93% 29.21 in 0.1 mi SSW 28.8 mph - N/A Fog Light Freezing Fog
7:55 AM 14.0 °F 1.2 °F 14.0 °F 100% 29.24 in 0.1 mi SW 10.4 mph - N/A Fog , Snow Light Snow
8:55 AM 14.0 °F -0.2 °F 12.2 °F 93% 29.24 in 0.1 mi SSW 12.7 mph - N/A Fog , Snow Light Snow
9:55 AM 14.0 °F -0.8 °F 12.2 °F 93% 29.21 in 0.1 mi SW 13.8 mph - N/A Fog , Snow Light Snow
10:00 AM 14 °F - 12 °F 89%  in 0 mi SW 13.8 mph - - Snow Light Snow
10:55 AM 14.0 °F -3.9 °F 12.2 °F 93% 29.24 in 0.1 mi SSW 20.7 mph - N/A Fog , Snow Light Snow
11:55 AM 14.0 °F -7.1 °F 12.2 °F 93% 29.21 in 0.1 mi SW 31.1 mph - N/A Fog Light Freezing Fog
12:55 PM 14.0 °F -6.8 °F 12.2 °F 93% 29.21 in 0.1 mi SSW 29.9 mph - N/A Fog Light Freezing Fog
1:00 PM 13 °F - 12 °F 92%  in 0 mi SSW 29.9 mph - - Fog Heavy Fog
1:55 PM 12.2 °F -4.8 °F 12.2 °F 100% 29.21 in 0.1 mi South 17.3 mph - N/A Fog Light Freezing Fog
2:55 PM 14.0 °F -6.5 °F 12.2 °F 93% 29.21 in 0.1 mi South 28.8 mph - N/A Fog Light Freezing Fog
3:55 PM 12.2 °F -8.2 °F 10.4 °F 92% 29.21 in 0.1 mi South 26.5 mph - N/A Fog Light Freezing Fog
4:00 PM 13 °F - 11 °F 87%  in 0 mi South 26.5 mph - - Fog Heavy Fog
4:55 PM 12.2 °F -7.9 °F 10.4 °F 92% 29.21 in 0.1 mi South 25.3 mph - N/A Fog Light Freezing Fog
5:55 PM 12.2 °F -10.2 °F 10.4 °F 92% 29.21 in 0.1 mi South 33.4 mph - N/A Fog Light Freezing Fog
6:55 PM 12.2 °F -11.3 °F 8.6 °F 85% 29.21 in 0.1 mi South 38.0 mph - N/A Fog , Snow Light Snow
7:00 PM 11 °F - 9 °F 89%  in 0 mi South 38.0 mph - - Snow Light Snow
7:55 PM 12.2 °F -11.6 °F 10.4 °F 92% 29.21 in 0.1 mi South 39.1 mph - N/A Fog , Snow Light Snow
8:55 PM 12.2 °F -7.5 °F 10.4 °F 92% 29.21 in 0.1 mi South 24.2 mph - N/A Fog , Snow Light Snow
9:55 PM 12.2 °F -6.3 °F 10.4 °F 92% 29.21 in 0.1 mi South 20.7 mph - N/A Fog , Snow Light Snow
10:00 PM 13 °F - 10 °F 83%  in 0 mi South 20.7 mph - - Snow Light Snow
10:55 PM 12.2 °F -7.5 °F 8.6 °F 85% 29.21 in 0.1 mi SSW 24.2 mph - N/A Fog Light Freezing Fog
11:55 PM 12.2 °F -6.3 °F 8.6 °F 85% 29.21 in 0.1 mi SSW 20.7 mph - N/A Fog Light Freezing Fog